Regional Weather Roundup
Issued by NWS Cleveland, OH

Home | Current Version | Previous Version | Text Only | Print | Product List | Glossary On
Versions: 1 2 3 4 5 6 7 8 9 10 11 12 13 14 15 16 17 18 19 20 21 22 23 24 25 26 27 28 29 30 31 32 33 34 35 36 37 38 39 40 41 42 43 44 45 46 47 48 49 50
000
ASUS41 KCLE 062102
RWRCLE
OHIO REGIONAL WEATHER ROUNDUP
NATIONAL WEATHER SERVICE CLEVELAND, OH
500 PM EDT WED MAY 06 2015

NOTE: "FAIR" INDICATES FEW OR NO CLOUDS BELOW 12,000 FEET WITH NO
SIGNIFICANT WEATHER AND/OR OBSTRUCTIONS TO VISIBILITY.

OHZ001>008-015>018-024>027-034-035-043-044-062200-
   NORTHWEST OHIO

CITY           SKY/WX    TMP DP  RH WIND       PRES   REMARKS
DEFIANCE       SUNNY     74  61  63 E7        30.17F HAZE
FINDLAY        SUNNY     79  59  50 NE8       30.15F
TOLEDO EXPRESS FAIR      68  57  68 E8        30.18F
TOLEDO EXEC    SUNNY     67  56  67 NE9       30.20F
LIMA           MOSUNNY   80  59  48 N10       30.15F
$$

OHZ009>014-019>023-028>033-038-089-062200-
   NORTHEAST OHIO

CITY           SKY/WX    TMP DP  RH WIND       PRES   REMARKS
CLE-HOPKINS    MOSUNNY   70  58  65 N6        30.20F
CLE-LAKEFRONT  FOG       53  51  93 N7        30.19F VSB 1/4
CUY CO. ARPT   PTSUNNY   73  61  64 N14       30.20F
LORAIN-ELYRIA  SUNNY     70  58  65 NE10      30.18F
ASHTABULA      MOSUNNY   72  58  61 VRB7      30.19F
AKRON-CANTON   MOSUNNY   82  57  42 NW10G23   30.15F
WOOSTER        MOSUNNY   81  59  47 N9        30.16F
MANSFIELD      SUNNY     79  59  50 N9        30.17F
YOUNGSTOWN     PTSUNNY   77  61  57 N12       30.16F
$$

OHZ042-051>053-060>062-070>072-077>081-062200-
  SOUTHWEST OHIO

CITY           SKY/WX    TMP DP  RH WIND       PRES   REMARKS
CINC-COVINGTON MOSUNNY   84  53  34 CALM      30.13F
CINC-LUNKEN    SUNNY     84  53  34 E3        30.11F
HAMILTON       MOSUNNY   86  51  29 VRB3      30.13F
DAYTON         MOSUNNY   82  56  40 N13       30.15F
WRIGHT-PAT AFB NOT AVBL
DAYTON GENERAL CLOUDY    84  53  34 CALM      30.13F
WILMINGTON     MOSUNNY   84  48  28 NE5       30.13F
$$

OHZ036-037-039>041-045>050-054>059-063>069-073>076-082>088-062200-
  CENTRAL AND SOUTHEAST OHIO

CITY           SKY/WX    TMP DP  RH WIND       PRES   REMARKS
COLUMBUS       PTSUNNY   82  56  40 N13       30.12F
OSU AIRPORT    MOSUNNY   83  58  42 N7        30.13F
BOLTON FIELD   MOSUNNY   82  55  39 NW5       30.13F
RICKENBACK AFB NOT AVBL
NEWARK         MOSUNNY   83  58  42 NW7       30.12F
MARION         SUNNY     82  54  37 NW7G17    30.15F
LANCASTER      MOSUNNY   83  53  35 NW5       30.13F
ZANESVILLE     MOSUNNY   83  55  38 W6        30.13F
NEW PHILLY     PTSUNNY   79  59  50 VRB3      30.15F
$$



USA.gov is the U.S. government's official web portal to all federal, state and local government web resources and services.